• In Hungary
  • List of Countries
  • For 7 days
  • Water Temperature
  • Satellite Maps
  • Weather Map
  • News
  • Weather Widgets
  • user-avatar
    Login

    Hourly Weather Horodovychi

    Today, 20 October, Friday

    Time Temperature Precipitation Wind Pressure Humidity
    00:00 +12°C° 0 mm 1 mps 734 mmHg 86%
    01:00 +10°C° 0 mm 0 mps 734 mmHg 87%
    02:00 +10°C° 0 mm 0 mps 734 mmHg 89%
    03:00 +10°C° 0 mm 0 mps 734 mmHg 90%
    04:00 +10°C° 0 mm 0 mps 734 mmHg 90%
    05:00 +9°C° 0 mm 0 mps 734 mmHg 90%
    06:00 +10°C° 0 mm 0 mps 734 mmHg 90%
    07:00 +10°C° 0 mm 0 mps 734 mmHg 89%
    08:00 +10°C° 0 mm 0 mps 734 mmHg 81%
    09:00 +12°C° 0 mm 0 mps 734 mmHg 74%
    10:00 +14°C° 0 mm 0 mps 735 mmHg 67%
    11:00 +16°C° 0 mm 0 mps 735 mmHg 61%
    12:00 +17°C° 0 mm 0 mps 735 mmHg 58%
    13:00 +17°C° 0 mm 0 mps 735 mmHg 55%
    14:00 +20°C° 0 mm 1 mps 735 mmHg 53%
    15:00 +19°C° 0 mm 1 mps 734 mmHg 58%
    16:00 +18°C° 0 mm 1 mps 734 mmHg 64%
    17:00 +15°C° 0 mm 1 mps 734 mmHg 69%
    18:00 +14°C° 0 mm 1 mps 734 mmHg 74%
    19:00 +13°C° 0 mm 1 mps 734 mmHg 78%
    20:00 +12°C° 0 mm 1 mps 734 mmHg 82%
    21:00 +12°C° 0 mm 1 mps 734 mmHg 83%
    22:00 +11°C° 0 mm 1 mps 734 mmHg 84%
    23:00 +11°C° 0 mm 1 mps 735 mmHg 85%

    Tomorrow, 21 October, Saturday

    Time Temperature Precipitation Wind Pressure Humidity
    00:00 +11°C° 0 mm 1 mps 735 mmHg 85%
    01:00 +10°C° 0 mm 1 mps 735 mmHg 85%
    02:00 +10°C° 0 mm 1 mps 734 mmHg 85%
    03:00 +10°C° 0 mm 1 mps 734 mmHg 85%
    04:00 +10°C° 0 mm 1 mps 734 mmHg 86%
    05:00 +9°C° 0 mm 1 mps 734 mmHg 86%
    06:00 +10°C° 0 mm 1 mps 734 mmHg 84%
    07:00 +10°C° 0 mm 1 mps 734 mmHg 83%
    08:00 +9°C° 0 mm 2 mps 734 mmHg 81%
    09:00 +12°C° 0 mm 2 mps 734 mmHg 74%
    10:00 +14°C° 0 mm 2 mps 734 mmHg 66%
    11:00 +16°C° 0 mm 2 mps 734 mmHg 59%
    12:00 +17°C° 0.1 mm 3 mps 734 mmHg 58%
    13:00 +17°C° 0.1 mm 3 mps 733 mmHg 58%
    14:00 +17°C° 0.1 mm 3 mps 733 mmHg 58%
    15:00 +16°C° 0.8 mm 3 mps 733 mmHg 67%
    16:00 +13°C° 0.8 mm 3 mps 733 mmHg 77%
    17:00 +13°C° 0.8 mm 2 mps 733 mmHg 86%
    18:00 +12°C° 0.1 mm 2 mps 733 mmHg 88%
    19:00 +12°C° 0.1 mm 2 mps 733 mmHg 89%
    20:00 +10°C° 0.1 mm 2 mps 733 mmHg 91%
    21:00 +10°C° 0 mm 2 mps 733 mmHg 91%
    22:00 +9°C° 0 mm 2 mps 733 mmHg 92%
    23:00 +9°C° 0 mm 2 mps 733 mmHg 93%

    Day after tomorrow, 22 October, Sunday

    Time Temperature Precipitation Wind Pressure Humidity
    00:00 +8°C° 0 mm 2 mps 733 mmHg 93%
    01:00 +9°C° 0 mm 1 mps 734 mmHg 93%
    02:00 +9°C° 0 mm 1 mps 734 mmHg 94%
    03:00 +9°C° 0 mm 1 mps 734 mmHg 94%
    04:00 +8°C° 0 mm 1 mps 734 mmHg 94%
    05:00 +8°C° 0 mm 1 mps 733 mmHg 94%
    06:00 +8°C° 0 mm 1 mps 734 mmHg 93%
    07:00 +7°C° 0 mm 0 mps 734 mmHg 93%
    08:00 +8°C° 0 mm 0 mps 734 mmHg 92%
    09:00 +10°C° 0 mm 1 mps 734 mmHg 86%
    10:00 +12°C° 0 mm 1 mps 734 mmHg 79%
    11:00 +13°C° 0 mm 1 mps 734 mmHg 73%
    12:00 +14°C° 0 mm 1 mps 733 mmHg 69%
    13:00 +15°C° 0 mm 2 mps 733 mmHg 66%
    14:00 +15°C° 0 mm 2 mps 733 mmHg 62%
    15:00 +14°C° 0 mm 2 mps 732 mmHg 68%
    16:00 +13°C° 0 mm 2 mps 732 mmHg 73%
    17:00 +12°C° 0 mm 2 mps 732 mmHg 79%
    18:00 +12°C° 0 mm 2 mps 732 mmHg 82%
    19:00 +10°C° 0 mm 2 mps 731 mmHg 86%
    20:00 +9°C° 0 mm 2 mps 731 mmHg 90%
    21:00 +9°C° 0 mm 2 mps 731 mmHg 89%
    22:00 +9°C° 0 mm 2 mps 731 mmHg 88%
    23:00 +10°C° 0 mm 1 mps 731 mmHg 88%

    23 October, Monday

    Time Temperature Precipitation Wind Pressure Humidity
    00:00 +10°C° 0 mm 1 mps 731 mmHg 87%
    01:00 +10°C° 0 mm 1 mps 730 mmHg 86%
    02:00 +10°C° 0 mm 1 mps 730 mmHg 85%
    03:00 +10°C° 0 mm 1 mps 729 mmHg 87%
    04:00 +9°C° 0 mm 1 mps 729 mmHg 88%
    05:00 +9°C° 0 mm 1 mps 729 mmHg 89%
    06:00 +9°C° 0.2 mm 1 mps 728 mmHg 89%
    07:00 +8°C° 0.2 mm 2 mps 728 mmHg 90%
    08:00 +8°C° 0.2 mm 2 mps 728 mmHg 91%
    09:00 +9°C° 0.3 mm 2 mps 728 mmHg 89%
    10:00 +9°C° 0.3 mm 2 mps 728 mmHg 87%
    11:00 +10°C° 0.3 mm 2 mps 728 mmHg 85%
    12:00 +10°C° 0.7 mm 2 mps 728 mmHg 86%
    13:00 +10°C° 0.7 mm 2 mps 727 mmHg 87%
    14:00 +9°C° 0.7 mm 3 mps 727 mmHg 88%
    15:00 +9°C° 1.1 mm 3 mps 727 mmHg 90%
    16:00 +9°C° 1.1 mm 3 mps 727 mmHg 91%
    17:00 +9°C° 1.1 mm 3 mps 727 mmHg 93%
    18:00 +9°C° 1.1 mm 3 mps 728 mmHg 93%
    19:00 +9°C° 1.1 mm 3 mps 728 mmHg 94%
    20:00 +9°C° 1.1 mm 3 mps 728 mmHg 94%
    21:00 +8°C° 1.4 mm 3 mps 728 mmHg 94%
    22:00 +8°C° 1.4 mm 3 mps 728 mmHg 94%
    23:00 +8°C° 1.4 mm 3 mps 728 mmHg 95%

    24 October, Tuesday

    Time Temperature Precipitation Wind Pressure Humidity
    00:00 +8°C° 1.2 mm 3 mps 728 mmHg 95%
    01:00 +8°C° 1.2 mm 3 mps 729 mmHg 95%
    02:00 +8°C° 1.2 mm 3 mps 729 mmHg 95%
    03:00 +8°C° 0.7 mm 3 mps 729 mmHg 95%
    04:00 +8°C° 0.7 mm 3 mps 729 mmHg 95%
    05:00 +7°C° 0.7 mm 3 mps 730 mmHg 95%
    06:00 +7°C° 0.3 mm 3 mps 730 mmHg 94%
    07:00 +7°C° 0.3 mm 3 mps 731 mmHg 94%
    08:00 +6°C° 0.3 mm 4 mps 732 mmHg 93%
    09:00 +6°C° 0.1 mm 4 mps 732 mmHg 92%
    10:00 +6°C° 0.1 mm 4 mps 733 mmHg 91%
    11:00 +6°C° 0.1 mm 4 mps 734 mmHg 90%
    12:00 +6°C° 0.1 mm 4 mps 734 mmHg 90%
    13:00 +6°C° 0.1 mm 4 mps 735 mmHg 90%
    14:00 +6°C° 0.1 mm 4 mps 735 mmHg 89%
    15:00 +6°C° 0.1 mm 4 mps 736 mmHg 89%
    16:00 +6°C° 0.1 mm 4 mps 736 mmHg 89%
    17:00 +5°C° 0.1 mm 4 mps 737 mmHg 89%
    18:00 +5°C° 0 mm 4 mps 738 mmHg 90%
    19:00 +5°C° 0 mm 4 mps 738 mmHg 90%
    20:00 +4°C° 0 mm 4 mps 739 mmHg 90%
    21:00 +4°C° 0 mm 3 mps 739 mmHg 90%
    22:00 +4°C° 0 mm 3 mps 740 mmHg 91%
    23:00 +4°C° 0 mm 3 mps 740 mmHg 91%

    25 October, Wednesday

    Time Temperature Precipitation Wind Pressure Humidity
    00:00 +4°C° 0 mm 3 mps 740 mmHg 91%
    01:00 +4°C° 0 mm 3 mps 741 mmHg 91%
    02:00 +4°C° 0 mm 3 mps 741 mmHg 91%
    03:00 +4°C° 0 mm 3 mps 741 mmHg 90%
    04:00 +3°C° 0 mm 3 mps 741 mmHg 90%
    05:00 +3°C° 0 mm 3 mps 741 mmHg 90%
    06:00 +3°C° 0 mm 3 mps 741 mmHg 90%
    07:00 +3°C° 0 mm 3 mps 742 mmHg 89%
    08:00 +3°C° 0 mm 3 mps 742 mmHg 89%
    09:00 +4°C° 0 mm 3 mps 742 mmHg 86%
    10:00 +5°C° 0 mm 3 mps 742 mmHg 83%
    11:00 +5°C° 0 mm 3 mps 743 mmHg 80%
    12:00 +7°C° 0 mm 3 mps 743 mmHg 79%
    13:00 +7°C° 0 mm 3 mps 743 mmHg 78%
    14:00 +7°C° 0 mm 3 mps 743 mmHg 77%
    15:00 +7°C° 0 mm 3 mps 743 mmHg 78%
    16:00 +5°C° 0 mm 3 mps 743 mmHg 80%
    17:00 +5°C° 0 mm 3 mps 743 mmHg 81%
    18:00 +4°C° 0 mm 3 mps 743 mmHg 83%
    19:00 +3°C° 0 mm 3 mps 743 mmHg 85%
    20:00 +3°C° 0 mm 3 mps 744 mmHg 87%
    21:00 +3°C° 0 mm 2 mps 744 mmHg 88%
    22:00 +3°C° 0 mm 2 mps 744 mmHg 88%
    23:00 +2°C° 0 mm 2 mps 744 mmHg 89%
    Show more